289.com alexa rank chart, 289.com alexa rank daily changes

289.com alexa rank chart, 289.com alexa rank daily changes

289.com
Actual rank:
54 502

RANK HISTORY

Date Rank Diff
2018/01/20 54 502 -488
2018/01/19 54 990 +722
2018/01/18 54 268 +1 366
2018/01/17 52 902 -143
2018/01/16 53 045 -3 412
2018/01/15 56 457 -1 790
2018/01/14 58 247 -868
2018/01/13 59 115 +2 485
2018/01/12 56 630 +1 669
2018/01/11 54 961 +876
2018/01/10 54 085 -94
2018/01/09 54 179 +2 108
2018/01/08 52 071 -830
2018/01/07 52 901 +1 111
2018/01/06 51 790 +687
2018/01/05 51 103 +592
2018/01/04 50 511 +1 345
2018/01/03 49 166 +371
2018/01/02 48 795 -341
2018/01/01 49 136 +1 241
2017/12/31 47 895 -715
2017/12/30 48 610 +608
2017/12/29 48 002 +104
2017/12/28 47 898 -176
2017/12/27 48 074 +748
2017/12/26 47 326 -2 034
2017/12/25 49 360 -308
2017/12/24 49 668 +227
2017/12/23 49 441 -188
2017/12/22 49 629 -128
2017/12/21 49 757 +158
2017/12/20 49 599 +1 130
2017/12/19 48 469 -608
2017/12/18 49 077 -48
2017/12/17 49 125 +441
2017/12/16 48 684 +173
2017/12/15 48 511 +583
2017/12/14 47 928 +1 500
2017/12/13 46 428 +408
2017/12/12 46 020 -1 511
2017/12/11 47 531 -1 122
2017/12/10 48 653 -1 104
2017/12/09 49 757 -1 597
2017/12/08 51 354 +698
2017/12/07 50 656 -1 479
2017/12/06 52 135 -953
2017/12/05 53 088 -225
2017/12/04 53 313 -1 320
2017/12/03 54 633 +918
2017/12/02 53 715 +382
2017/12/01 53 333 +76
2017/11/30 53 257 +846
2017/11/29 52 411 -344
2017/11/28 52 755 +896
2017/11/27 51 859 -1 028
2017/11/26 52 887 +100
2017/11/25 52 787 -607
2017/11/24 53 394 +891
2017/11/23 52 503 +1 606
2017/11/22 50 897 -1 336
2017/11/21 52 233

WIDGET FOR YOUR SITE

DOMAINS WITH THE NEAREST RANK

Domain Rank
ihs.com.tr 54 497
digiday.jp 54 498
toyodiy.com 54 499
familyfreshmeals.com 54 500
hsamuel.co.uk 54 501
289.com 54 502
brmovies.me 54 503
futoka.jp 54 504
apahotel.com 54 505
2redbeans.com 54 506
tdnet.info 54 507

DOMAINS WITH THE NEAREST RANK BY TLD .com

Domain Rank
energysage.com 54 489
b400393baba7cd476a3.com 54 491
tangoporno.com 54 494
toyodiy.com 54 499
familyfreshmeals.com 54 500
289.com 54 502
apahotel.com 54 505
2redbeans.com 54 506
bpm-power.com 54 508
samsonite.com 54 509
pokemongowarrior.com 54 510